Weather History for El Dorado, AR

Change the Weather History Date:

Wednesday, August 7, 2013

  Actual Average Record
Temperature  
Mean Temperature 86 °F 82 °F  
Max Temperature 97 °F 93 °F 106 °F (1947)
Min Temperature 75 °F 71 °F 60 °F (1961)
Degree Days  
Heating Degree Days 0 0  
Month to date heating degree days 0 0  
Since 1 June heating degree days 0 0  
Since 1 July heating degree days 0 0  
Cooling Degree Days 21 17  
Month to date cooling degree days 138 119  
Year to date cooling degree days 1295 1342  
Since 1 June cooling degree days 1017 1031  
Growing Degree Days 36 (Base 50)    
Moisture  
Dew Point 71 °F    
Average Humidity 66    
Maximum Humidity 94    
Minimum Humidity 38    
Precipitation  
Precipitation 0.00 in 0.11 in 2.20 in (1995)
Month to date precipitation 0.00 0.75  
Year to date precipitation 25.82 32.19  
Snow  
Snow 0.00 in - - ()
Month to date snowfall 0.0  
Since 1 June snowfall 0.0  
Since 1 July snowfall 0.0  
Snow Depth 0.00 in    
Sea Level Pressure  
Sea Level Pressure 29.89 in    
Wind  
Wind Speed 4 mph (South)    
Max Wind Speed 12 mph    
Max Gust Speed 15 mph    
Visibility 10 miles    
Events      
T = Trace of Precipitation, MM = Missing Value Source: NWS Daily Summary

Daily Weather History Graph

Daily Weather History Graph

Search for Another Location

Airport:

Trip Planner

Search our weather history database for the weather conditions in past years. The results will help you decide how hot, cold, wet, or windy it might be!

Date:

Astronomy

Aug. 07, 2013 Rise Set
Actual Time 6:28 AM CDT 8:04 PM CDT
Civil Twilight 6:01 AM CDT 8:31 PM CDT
Nautical Twilight 5:29 AM CDT 9:03 PM CDT
Astronomical Twilight 4:56 AM CDT 9:36 PM CDT
Moon 7:11 AM CDT (8/7) 8:19 PM CDT (8/7)
Length of Visible Light 14h 29m
Length of Day
13h 36m
New Moon, 1% of the Moon is Illuminated
Aug 7
New Moon
Aug 14
First Quarter
Aug 20
Full
Aug 28
Last Quarter
Sep 5
New

Hourly Weather History & Observations

Time (CDT) Temp. Heat Index Dew Point Humidity Pressure Visibility Wind Dir Wind Speed Gust Speed Precip Events Conditions
12:53 AM 79.0 °F - 72.0 °F 79% 29.90 in 10.0 mi Calm Calm - N/A   Clear
1:53 AM 77.0 °F - 73.0 °F 88% 29.89 in 10.0 mi Calm Calm - N/A   Clear
2:53 AM 78.1 °F - 72.0 °F 81% 29.88 in 10.0 mi Calm Calm - N/A   Clear
3:53 AM 77.0 °F - 72.0 °F 84% 29.87 in 10.0 mi South 4.6 mph - N/A   Clear
4:53 AM 75.9 °F - 73.0 °F 91% 29.87 in 10.0 mi South 4.6 mph - N/A   Clear
5:53 AM 75.9 °F - 73.0 °F 91% 29.88 in 10.0 mi SSW 3.5 mph - N/A   Clear
6:53 AM 75.9 °F - 73.9 °F 94% 29.90 in 9.0 mi SSW 3.5 mph - N/A   Unknown
7:53 AM 79.0 °F - 75.0 °F 88% 29.91 in 9.0 mi SSW 8.1 mph - N/A   Clear
8:53 AM 82.9 °F 90.2 °F 75.0 °F 77% 29.94 in 10.0 mi SW 8.1 mph - N/A   Clear
9:53 AM 86.0 °F 92.2 °F 72.0 °F 63% 29.95 in 10.0 mi WSW 6.9 mph - N/A   Clear
10:53 AM 88.0 °F 93.8 °F 71.1 °F 57% 29.94 in 10.0 mi SW 3.5 mph - N/A   Clear
11:53 AM 91.0 °F 96.6 °F 70.0 °F 50% 29.93 in 10.0 mi SSW 5.8 mph - N/A   Clear
12:53 PM 91.9 °F 96.9 °F 69.1 °F 47% 29.91 in 10.0 mi Calm Calm - N/A   Clear
1:53 PM 93.9 °F 97.5 °F 66.9 °F 41% 29.90 in 10.0 mi SSE 6.9 mph - N/A   Clear
2:53 PM 96.1 °F 101.6 °F 69.1 °F 41% 29.89 in 10.0 mi South 5.8 mph - N/A   Clear
3:53 PM 96.1 °F 99.9 °F 66.9 °F 38% 29.87 in 10.0 mi SE 5.8 mph - N/A   Clear
4:53 PM 96.1 °F 99.3 °F 66.0 °F 37% 29.86 in 10.0 mi SSE 9.2 mph - N/A   Clear
5:53 PM 95.0 °F 101.3 °F 70.0 °F 44% 29.85 in 10.0 mi South 8.1 mph - N/A   Clear
6:53 PM 91.9 °F 98.4 °F 71.1 °F 50% 29.85 in 10.0 mi South 5.8 mph - N/A   Clear
7:53 PM 87.1 °F 94.5 °F 73.0 °F 63% 29.85 in 9.0 mi Calm Calm - N/A   Clear
8:53 PM 79.0 °F - 73.9 °F 84% 29.86 in 10.0 mi Calm Calm - N/A   Clear
9:53 PM 79.0 °F - 73.9 °F 84% 29.87 in 10.0 mi Calm Calm - N/A   Clear
10:53 PM 75.9 °F - 72.0 °F 87% 29.89 in 10.0 mi Calm Calm - N/A   Clear
11:53 PM 75.0 °F - 72.0 °F 90% 29.88 in 9.0 mi Calm Calm - N/A   Clear